{"data":{"norad_id":58486,"intl_designator":"2023-186P","name":"STARLINK-31005","alt_names":[],"object_type":"PAYLOAD","status":"ACTIVE","operator":null,"country":"US","launch_date":"2023-12-03","launch_site_code":"AFETR","launch_vehicle":null,"mission":null,"orbit_class":"UNKNOWN","rcs_meters":null,"size_class":null,"mass_kg":null,"dimensions":null,"purposes":["comms"],"wikipedia_slug":null,"has_3d_model":false,"image_url":null,"decayed_at":null,"tle_current":{"epoch":"2026-05-24T22:07:24.320928Z","epoch_age_seconds":88714,"freshness":"FRESH","line1":"1 58486U 23186P   26144.92180927 -.00004764  00000+0 -16366-3 0  9993","line2":"2 58486  43.0018 353.2374 0001654 270.6875  89.3787 15.27589186137541","mean_motion":15.27589186,"eccentricity":0.0001654,"inclination_deg":43.0018,"raan_deg":353.2374,"arg_perigee_deg":270.6875,"mean_anomaly_deg":89.3787,"bstar":-0.00016366,"rev_number":13754,"period_min":94.266181850282,"perigee_km":481.88675435806,"apogee_km":484.15642561963,"semimajor_km":6861.1585899888,"source":"CELESTRAK","updated_at":"2026-05-25T13:38:18.652622Z"}}}